Time,TemperatureF,DewpointF,PressureIn,WindDirection,WindDirectionDegrees,WindSpeedMPH,WindSpeedGustMPH,Humidity,HourlyPrecipIn,Conditions,Clouds,dailyrainin,SolarRadiationWatts/m^2,SoftwareType,DateUTC
2013-08-20 00:00:00,58.4,36.6,29.72,South,172,2.0,2.0,44,0.00,,,0.00,0,Wunderground v.1.15,2013-08-20 06:00:00,
2013-08-20 00:05:00,58.3,37.6,29.72,SSE,164,1.0,2.0,46,0.00,,,0.00,0,Wunderground v.1.15,2013-08-20 06:05:00,
2013-08-20 00:10:00,58.1,37.4,29.72,SSE,164,0.0,0.0,46,0.00,,,0.00,0,Wunderground v.1.15,2013-08-20 06:10:00,
2013-08-20 00:20:00,58.0,37.3,29.71,SSE,164,0.0,0.0,46,0.00,,,0.00,0,Wunderground v.1.15,2013-08-20 06:20:00,
2013-08-20 00:25:00,57.8,37.7,29.71,SSE,165,0.0,0.0,47,0.00,,,0.00,0,Wunderground v.1.15,2013-08-20 06:25:00,
2013-08-20 00:35:00,57.5,36.9,29.66,SSE,165,0.0,0.0,46,0.00,,,0.00,0,Wunderground v.1.15,2013-08-20 06:35:00,
2013-08-20 00:40:00,57.3,36.7,29.66,SSE,165,0.0,0.0,46,0.00,,,0.00,0,Wunderground v.1.15,2013-08-20 06:40:00,
2013-08-20 00:45:00,57.2,36.6,29.66,SW,220,0.0,2.0,46,0.00,,,0.00,0,Wunderground v.1.15,2013-08-20 06:45:00,
2013-08-20 00:50:00,56.9,36.3,29.66,SW,223,1.0,1.0,46,0.00,,,0.00,0,Wunderground v.1.15,2013-08-20 06:50:00,
2013-08-20 00:55:00,56.7,36.1,29.66,SW,223,1.0,1.0,46,0.00,,,0.00,0,Wunderground v.1.15,2013-08-20 06:55:00,
2013-08-20 01:00:00,56.6,36.0,29.66,SW,223,0.0,0.0,46,0.00,,,0.00,0,Wunderground v.1.15,2013-08-20 07:00:00,
2013-08-20 01:10:00,56.2,36.8,29.66,SSW,209,1.0,1.0,48,0.00,,,0.00,0,Wunderground v.1.15,2013-08-20 07:10:00,
2013-08-20 01:15:00,56.0,36.6,29.67,SSW,209,0.0,1.0,48,0.00,,,0.00,0,Wunderground v.1.15,2013-08-20 07:15:00,
2013-08-20 01:20:00,55.9,36.5,29.67,SSW,209,0.0,0.0,48,0.00,,,0.00,0,Wunderground v.1.15,2013-08-20 07:20:00,
2013-08-20 01:25:00,55.9,36.5,29.67,WSW,253,1.0,1.0,48,0.00,,,0.00,0,Wunderground v.1.15,2013-08-20 07:25:00,
2013-08-20 01:35:00,55.9,34.8,29.71,WSW,246,3.0,3.0,45,0.00,,,0.00,0,Wunderground v.1.15,2013-08-20 07:35:00,
2013-08-20 01:40:00,55.9,35.4,29.71,South,188,3.0,3.0,46,0.00,,,0.00,0,Wunderground v.1.15,2013-08-20 07:40:00,
2013-08-20 01:45:00,56.0,36.6,29.71,South,188,1.0,3.0,48,0.00,,,0.00,0,Wunderground v.1.15,2013-08-20 07:45:00,
2013-08-20 01:50:00,56.2,36.8,29.71,South,188,0.0,0.0,48,0.00,,,0.00,0,Wunderground v.1.15,2013-08-20 07:50:00,
2013-08-20 01:55:00,56.2,36.8,29.71,South,189,0.0,0.0,48,0.00,,,0.00,0,Wunderground v.1.15,2013-08-20 07:55:00,
2013-08-20 02:00:00,56.3,36.8,29.70,South,191,0.0,0.0,48,0.00,,,0.00,0,Wunderground v.1.15,2013-08-20 08:00:00,
2013-08-20 02:05:00,56.2,36.2,29.70,SSW,199,0.0,6.0,47,0.00,,,0.00,0,Wunderground v.1.15,2013-08-20 08:05:00,
2013-08-20 02:15:00,56.0,35.5,29.70,WSW,258,1.0,1.0,46,0.00,,,0.00,0,Wunderground v.1.15,2013-08-20 08:15:00,
2013-08-20 02:20:00,56.0,35.5,29.70,West,263,1.0,6.0,46,0.00,,,0.00,0,Wunderground v.1.15,2013-08-20 08:20:00,
2013-08-20 02:30:00,55.9,35.4,29.67,SW,233,1.0,1.0,46,0.00,,,0.00,0,Wunderground v.1.15,2013-08-20 08:30:00,
2013-08-20 02:35:00,55.7,35.2,29.67,SW,232,1.0,1.0,46,0.00,,,0.00,0,Wunderground v.1.15,2013-08-20 08:35:00,
2013-08-20 02:45:00,55.7,35.2,29.67,SW,232,2.0,4.0,46,0.00,,,0.00,0,Wunderground v.1.15,2013-08-20 08:45:00,
2013-08-20 02:50:00,55.7,35.2,29.67,SSW,202,1.0,1.0,46,0.00,,,0.00,0,Wunderground v.1.15,2013-08-20 08:50:00,
2013-08-20 02:55:00,55.7,35.2,29.67,WSW,248,1.0,6.0,46,0.00,,,0.00,0,Wunderground v.1.15,2013-08-20 08:55:00,
2013-08-20 03:00:00,55.9,34.8,29.67,SW,222,3.0,3.0,45,0.00,,,0.00,0,Wunderground v.1.15,2013-08-20 09:00:00,
2013-08-20 03:05:00,56.0,34.4,29.67,WSW,251,3.0,3.0,44,0.00,,,0.00,0,Wunderground v.1.15,2013-08-20 09:05:00,
2013-08-20 03:10:00,56.2,35.1,29.67,SSW,212,2.0,2.0,45,0.00,,,0.00,0,Wunderground v.1.15,2013-08-20 09:10:00,
2013-08-20 03:20:00,56.5,35.4,29.67,WSW,250,1.0,1.0,45,0.00,,,0.00,0,Wunderground v.1.15,2013-08-20 09:20:00,
2013-08-20 03:25:00,56.6,34.9,29.67,WSW,241,1.0,6.0,44,0.00,,,0.00,0,Wunderground v.1.15,2013-08-20 09:25:00,
2013-08-20 03:30:00,56.7,34.4,29.65,WSW,247,2.0,2.0,43,0.00,,,0.00,0,Wunderground v.1.15,2013-08-20 09:30:00,
2013-08-20 03:35:00,56.7,34.4,29.65,SW,232,3.0,3.0,43,0.00,,,0.00,0,Wunderground v.1.15,2013-08-20 09:35:00,
2013-08-20 03:45:00,57.0,34.7,29.65,WSW,257,3.0,3.0,43,0.00,,,0.00,0,Wunderground v.1.15,2013-08-20 09:45:00,
2013-08-20 03:50:00,57.0,34.1,29.65,WSW,247,3.0,6.0,42,0.00,,,0.00,0,Wunderground v.1.15,2013-08-20 09:50:00,
2013-08-20 03:55:00,57.2,34.3,29.65,SW,217,4.0,7.0,42,0.00,,,0.00,0,Wunderground v.1.15,2013-08-20 09:55:00,
2013-08-20 04:00:00,57.3,34.4,29.65,SW,215,3.0,6.0,42,0.00,,,0.00,0,Wunderground v.1.15,2013-08-20 10:00:00,
2013-08-20 04:05:00,57.5,34.0,29.65,WSW,240,4.0,6.0,41,0.00,,,0.00,0,Wunderground v.1.15,2013-08-20 10:05:00,
2013-08-20 04:10:00,57.8,33.6,29.65,WSW,239,5.0,5.0,40,0.00,,,0.00,0,Wunderground v.1.15,2013-08-20 10:10:00,
2013-08-20 04:20:00,58.3,33.4,29.65,WSW,239,5.0,5.0,39,0.00,,,0.00,0,Wunderground v.1.15,2013-08-20 10:20:00,
2013-08-20 04:25:00,58.4,33.5,29.65,WSW,248,5.0,9.0,39,0.00,,,0.00,0,Wunderground v.1.15,2013-08-20 10:25:00,
2013-08-20 04:30:00,58.7,33.8,29.67,SSW,195,5.0,5.0,39,0.00,,,0.00,0,Wunderground v.1.15,2013-08-20 10:30:00,
2013-08-20 04:40:00,59.2,33.6,29.67,South,171,3.0,7.0,38,0.00,,,0.00,0,Wunderground v.1.15,2013-08-20 10:40:00,
2013-08-20 04:45:00,59.3,33.7,29.66,West,275,2.0,8.0,38,0.00,,,0.00,0,Wunderground v.1.15,2013-08-20 10:45:00,
2013-08-20 04:50:00,59.6,33.9,29.66,West,275,3.0,3.0,38,0.00,,,0.00,0,Wunderground v.1.15,2013-08-20 10:50:00,
2013-08-20 04:55:00,59.6,33.9,29.66,SW,224,3.0,6.0,38,0.00,,,0.00,0,Wunderground v.1.15,2013-08-20 10:55:00,
2013-08-20 05:00:00,59.8,34.1,29.65,SW,233,4.0,6.0,38,0.00,,,0.00,0,Wunderground v.1.15,2013-08-20 11:00:00,
2013-08-20 05:10:00,60.1,33.7,29.65,SSW,213,4.0,6.0,37,0.00,,,0.00,0,Wunderground v.1.15,2013-08-20 11:10:00,
2013-08-20 05:15:00,60.1,33.7,29.65,WSW,253,4.0,6.0,37,0.00,,,0.00,0,Wunderground v.1.15,2013-08-20 11:15:00,
2013-08-20 05:25:00,60.4,33.3,29.65,WSW,247,4.0,4.0,36,0.00,,,0.00,0,Wunderground v.1.15,2013-08-20 11:25:00,
2013-08-20 05:30:00,60.5,33.4,29.68,West,260,3.0,3.0,36,0.00,,,0.00,0,Wunderground v.1.15,2013-08-20 11:30:00,
2013-08-20 05:35:00,60.5,33.4,29.68,SSW,205,4.0,4.0,36,0.00,,,0.00,0,Wunderground v.1.15,2013-08-20 11:35:00,
2013-08-20 05:45:00,60.9,33.7,29.68,WSW,241,4.0,9.0,36,0.00,,,0.00,0,Wunderground v.1.15,2013-08-20 11:45:00,
2013-08-20 05:50:00,60.9,33.7,29.68,WSW,240,5.0,5.0,36,0.00,,,0.00,0,Wunderground v.1.15,2013-08-20 11:50:00,
2013-08-20 06:00:00,61.0,33.8,29.68,West,264,4.0,4.0,36,0.00,,,0.00,0,Wunderground v.1.15,2013-08-20 12:00:00,
2013-08-20 06:05:00,61.2,34.0,29.68,WSW,257,4.0,4.0,36,0.00,,,0.00,0,Wunderground v.1.15,2013-08-20 12:05:00,
2013-08-20 06:10:00,61.2,34.0,29.68,WSW,237,4.0,6.0,36,0.00,,,0.00,0,Wunderground v.1.15,2013-08-20 12:10:00,
2013-08-20 06:15:00,61.3,34.1,29.69,SSE,168,3.0,6.0,36,0.00,,,0.00,0,Wunderground v.1.15,2013-08-20 12:15:00,
2013-08-20 06:20:00,61.3,34.1,29.69,NW,305,4.0,4.0,36,0.00,,,0.00,0,Wunderground v.1.15,2013-08-20 12:20:00,
2013-08-20 06:30:00,61.3,34.1,29.73,WNW,295,4.0,7.0,36,0.00,,,0.00,0,Wunderground v.1.15,2013-08-20 12:30:00,
2013-08-20 06:35:00,61.5,34.3,29.73,SW,234,5.0,8.0,36,0.00,,,0.00,0,Wunderground v.1.15,2013-08-20 12:35:00,
2013-08-20 06:40:00,61.5,34.3,29.73,SW,215,4.0,6.0,36,0.00,,,0.00,0,Wunderground v.1.15,2013-08-20 12:40:00,
2013-08-20 06:50:00,61.8,35.2,29.73,SSW,199,5.0,13.0,37,0.00,,,0.00,5,Wunderground v.1.15,2013-08-20 12:50:00,
2013-08-20 06:55:00,62.0,35.4,29.73,SW,219,5.0,13.0,37,0.00,,,0.00,9,Wunderground v.1.15,2013-08-20 12:55:00,
2013-08-20 07:05:00,62.1,36.2,29.73,WSW,257,4.0,6.0,38,0.00,,,0.00,9,Wunderground v.1.15,2013-08-20 13:05:00,
2013-08-20 07:10:00,62.4,36.4,29.73,SW,217,5.0,5.0,38,0.00,,,0.00,11,Wunderground v.1.15,2013-08-20 13:10:00,
2013-08-20 07:15:00,62.4,36.4,29.73,WSW,251,6.0,8.0,38,0.00,,,0.00,12,Wunderground v.1.15,2013-08-20 13:15:00,
2013-08-20 07:20:00,62.7,36.7,29.73,NW,325,6.0,6.0,38,0.00,,,0.00,14,Wunderground v.1.15,2013-08-20 13:20:00,
2013-08-20 07:25:00,62.9,37.5,29.73,SW,216,5.0,6.0,39,0.00,,,0.00,14,Wunderground v.1.15,2013-08-20 13:25:00,
2013-08-20 07:30:00,63.1,37.1,29.74,WNW,289,5.0,6.0,38,0.00,,,0.00,14,Wunderground v.1.15,2013-08-20 13:30:00,
2013-08-20 07:35:00,63.2,37.2,29.74,SW,234,5.0,6.0,38,0.00,,,0.00,16,Wunderground v.1.15,2013-08-20 13:35:00,
2013-08-20 07:40:00,63.4,37.3,29.74,WNW,284,5.0,5.0,38,0.00,,,0.00,16,Wunderground v.1.15,2013-08-20 13:40:00,
2013-08-20 07:45:00,63.7,37.6,29.73,SW,222,6.0,8.0,38,0.00,,,0.00,18,Wunderground v.1.15,2013-08-20 13:45:00,
2013-08-20 07:55:00,64.2,38.0,29.73,WSW,253,5.0,9.0,38,0.00,,,0.00,19,Wunderground v.1.15,2013-08-20 13:55:00,
2013-08-20 08:00:00,64.5,37.6,29.73,SW,230,5.0,7.0,37,0.00,,,0.00,23,Wunderground v.1.15,2013-08-20 14:00:00,
2013-08-20 08:05:00,64.8,37.9,29.73,WSW,257,4.0,13.0,37,0.00,,,0.00,30,Wunderground v.1.15,2013-08-20 14:05:00,
2013-08-20 08:10:00,65.0,38.1,29.73,WSW,258,4.0,4.0,37,0.00,,,0.00,35,Wunderground v.1.15,2013-08-20 14:10:00,
2013-08-20 08:15:00,65.5,37.8,29.73,West,261,6.0,6.0,36,0.00,,,0.00,26,Wunderground v.1.15,2013-08-20 14:15:00,
2013-08-20 08:20:00,65.8,38.1,29.73,North,349,5.0,8.0,36,0.00,,,0.00,25,Wunderground v.1.15,2013-08-20 14:20:00,
2013-08-20 08:25:00,66.0,37.5,29.73,NW,311,5.0,8.0,35,0.00,,,0.00,28,Wunderground v.1.15,2013-08-20 14:25:00,
2013-08-20 08:30:00,66.4,38.6,29.74,West,274,4.0,6.0,36,0.00,,,0.00,26,Wunderground v.1.15,2013-08-20 14:30:00,
2013-08-20 08:35:00,66.8,39.0,29.74,West,272,4.0,6.0,36,0.00,,,0.00,28,Wunderground v.1.15,2013-08-20 14:35:00,
2013-08-20 08:40:00,67.1,38.5,29.74,WNW,284,5.0,6.0,35,0.00,,,0.00,30,Wunderground v.1.15,2013-08-20 14:40:00,
2013-08-20 08:50:00,67.8,39.1,29.73,WNW,285,3.0,6.0,35,0.00,,,0.00,30,Wunderground v.1.15,2013-08-20 14:50:00,
2013-08-20 08:55:00,68.1,39.4,29.73,West,280,4.0,6.0,35,0.00,,,0.00,32,Wunderground v.1.15,2013-08-20 14:55:00,
2013-08-20 09:00:00,68.4,38.9,29.73,WNW,295,5.0,5.0,34,0.00,,,0.00,33,Wunderground v.1.15,2013-08-20 15:00:00,
2013-08-20 09:05:00,68.8,39.3,29.73,WSW,248,4.0,9.0,34,0.00,,,0.00,33,Wunderground v.1.15,2013-08-20 15:05:00,
2013-08-20 09:10:00,68.9,39.4,29.73,WSW,244,4.0,7.0,34,0.00,,,0.00,35,Wunderground v.1.15,2013-08-20 15:10:00,
2013-08-20 09:15:00,69.3,38.9,29.72,WSW,257,4.0,7.0,33,0.00,,,0.00,35,Wunderground v.1.15,2013-08-20 15:15:00,
2013-08-20 09:20:00,69.8,38.6,29.72,SSW,212,4.0,4.0,32,0.00,,,0.00,37,Wunderground v.1.15,2013-08-20 15:20:00,
2013-08-20 09:25:00,70.1,40.4,29.72,SW,222,3.0,9.0,34,0.00,,,0.00,39,Wunderground v.1.15,2013-08-20 15:25:00,
2013-08-20 09:35:00,70.9,37.9,29.71,WSW,247,3.0,3.0,30,0.00,,,0.00,39,Wunderground v.1.15,2013-08-20 15:35:00,
2013-08-20 09:40:00,71.3,38.2,29.71,SW,230,4.0,4.0,30,0.00,,,0.00,40,Wunderground v.1.15,2013-08-20 15:40:00,
2013-08-20 09:50:00,72.0,38.0,29.69,WSW,254,3.0,7.0,29,0.00,,,0.00,49,Wunderground v.1.15,2013-08-20 15:50:00,
2013-08-20 09:55:00,72.5,38.4,29.69,WNW,289,3.0,7.0,29,0.00,,,0.00,107,Wunderground v.1.15,2013-08-20 15:55:00,
2013-08-20 10:00:00,73.0,37.0,29.69,SW,219,3.0,7.0,27,0.00,,,0.00,285,Wunderground v.1.15,2013-08-20 16:00:00,
2013-08-20 10:05:00,73.5,36.5,29.69,NW,319,4.0,7.0,26,0.00,,,0.00,69,Wunderground v.1.15,2013-08-20 16:05:00,
2013-08-20 10:10:00,74.2,37.1,29.69,SW,234,4.0,7.0,26,0.00,,,0.00,51,Wunderground v.1.15,2013-08-20 16:10:00,
2013-08-20 10:15:00,74.6,35.4,29.69,WNW,288,4.0,7.0,24,0.00,,,0.00,51,Wunderground v.1.15,2013-08-20 16:15:00,
2013-08-20 10:20:00,75.8,34.2,29.69,WSW,248,5.0,5.0,22,0.00,,,0.00,53,Wunderground v.1.15,2013-08-20 16:20:00,
2013-08-20 10:30:00,77.4,36.7,29.66,WNW,294,4.0,6.0,23,0.00,,,0.00,56,Wunderground v.1.15,2013-08-20 16:30:00,
2013-08-20 10:35:00,77.6,33.3,29.66,NNW,337,4.0,6.0,20,0.00,,,0.00,368,Wunderground v.1.15,2013-08-20 16:35:00,
2013-08-20 10:40:00,77.7,33.4,29.66,NW,308,3.0,3.0,20,0.00,,,0.00,271,Wunderground v.1.15,2013-08-20 16:40:00,
2013-08-20 10:45:00,77.9,33.6,29.65,NW,306,3.0,6.0,20,0.00,,,0.00,148,Wunderground v.1.15,2013-08-20 16:45:00,
2013-08-20 10:50:00,78.3,31.3,29.65,NW,309,5.0,5.0,18,0.00,,,0.00,148,Wunderground v.1.15,2013-08-20 16:50:00,
2013-08-20 10:55:00,78.8,33.0,29.65,NW,312,3.0,5.0,19,0.00,,,0.00,95,Wunderground v.1.15,2013-08-20 16:55:00,
2013-08-20 11:00:00,79.6,32.3,29.64,SSW,203,1.0,1.0,18,0.00,,,0.00,79,Wunderground v.1.15,2013-08-20 17:00:00,
2013-08-20 11:05:00,79.8,31.1,29.64,WSW,258,2.0,2.0,17,0.00,,,0.00,301,Wunderground v.1.15,2013-08-20 17:05:00,
2013-08-20 11:10:00,79.9,32.6,29.64,NW,323,2.0,6.0,18,0.00,,,0.00,734,Wunderground v.1.15,2013-08-20 17:10:00,
2013-08-20 11:15:00,80.7,31.8,29.64,WNW,299,3.0,6.0,17,0.00,,,0.00,799,Wunderground v.1.15,2013-08-20 17:15:00,
2013-08-20 11:20:00,80.3,31.5,29.64,NW,316,4.0,6.0,17,0.00,,,0.00,853,Wunderground v.1.15,2013-08-20 17:20:00,
2013-08-20 11:25:00,80.7,30.3,29.64,NW,309,4.0,6.0,16,0.00,,,0.00,869,Wunderground v.1.15,2013-08-20 17:25:00,
2013-08-20 11:35:00,81.2,32.2,29.65,NNW,346,3.0,7.0,17,0.00,,,0.00,896,Wunderground v.1.15,2013-08-20 17:35:00,
2013-08-20 11:40:00,82.0,31.4,29.65,North,0,3.0,3.0,16,0.00,,,0.00,883,Wunderground v.1.15,2013-08-20 17:40:00,
2013-08-20 11:50:00,81.4,32.4,29.64,North,6,2.0,4.0,17,0.00,,,0.00,911,Wunderground v.1.15,2013-08-20 17:50:00,
2013-08-20 11:55:00,82.6,33.4,29.64,North,0,2.0,7.0,17,0.00,,,0.00,918,Wunderground v.1.15,2013-08-20 17:55:00,
2013-08-20 12:00:00,83.2,30.7,29.62,North,357,2.0,2.0,15,0.00,,,0.00,926,Wunderground v.1.15,2013-08-20 18:00:00,
2013-08-20 12:05:00,83.4,30.9,29.62,NNE,24,2.0,2.0,15,0.00,,,0.00,933,Wunderground v.1.15,2013-08-20 18:05:00,
2013-08-20 12:10:00,84.3,33.2,29.62,NE,40,3.0,3.0,16,0.00,,,0.00,950,Wunderground v.1.15,2013-08-20 18:10:00,
2013-08-20 12:15:00,83.6,31.0,29.63,North,0,3.0,3.0,15,0.00,,,0.00,961,Wunderground v.1.15,2013-08-20 18:15:00,
2013-08-20 12:20:00,84.7,33.5,29.63,East,100,2.0,9.0,16,0.00,,,0.00,984,Wunderground v.1.15,2013-08-20 18:20:00,
2013-08-20 12:25:00,84.9,32.1,29.63,East,83,4.0,9.0,15,0.00,,,0.00,992,Wunderground v.1.15,2013-08-20 18:25:00,
2013-08-20 12:30:00,84.3,33.2,29.62,East,82,4.0,4.0,16,0.00,,,0.00,121,Wunderground v.1.15,2013-08-20 18:30:00,
2013-08-20 12:35:00,82.8,34.9,29.62,NNE,32,3.0,4.0,18,0.00,,,0.00,943,Wunderground v.1.15,2013-08-20 18:35:00,
2013-08-20 12:45:00,80.7,37.1,29.64,East,82,3.0,4.0,21,0.00,,,0.00,964,Wunderground v.1.15,2013-08-20 18:45:00,
2013-08-20 12:50:00,82.8,36.3,29.64,East,100,4.0,7.0,19,0.00,,,0.00,172,Wunderground v.1.15,2013-08-20 18:50:00,
2013-08-20 12:55:00,80.1,34.1,29.64,ESE,113,5.0,10.0,19,0.00,,,0.00,107,Wunderground v.1.15,2013-08-20 18:55:00,
2013-08-20 13:05:00,77.6,34.6,29.66,East,92,7.0,7.0,21,0.00,,,0.00,991,Wunderground v.1.15,2013-08-20 19:05:00,
2013-08-20 13:10:00,80.9,36.1,29.66,SE,130,6.0,14.0,20,0.00,,,0.00,985,Wunderground v.1.15,2013-08-20 19:10:00,
2013-08-20 13:15:00,82.6,34.8,29.63,East,97,6.0,14.0,18,0.00,,,0.00,975,Wunderground v.1.15,2013-08-20 19:15:00,
2013-08-20 13:20:00,83.2,32.3,29.63,SE,143,7.0,10.0,16,0.00,,,0.00,977,Wunderground v.1.15,2013-08-20 19:20:00,
2013-08-20 13:30:00,83.4,34.0,29.62,East,83,8.0,8.0,17,0.00,,,0.00,174,Wunderground v.1.15,2013-08-20 19:30:00,
2013-08-20 13:35:00,83.6,32.6,29.62,NE,48,6.0,8.0,16,0.00,,,0.00,243,Wunderground v.1.15,2013-08-20 19:35:00,
2013-08-20 13:40:00,82.2,34.5,29.62,ENE,78,4.0,4.0,18,0.00,,,0.00,195,Wunderground v.1.15,2013-08-20 19:40:00,
2013-08-20 13:45:00,80.5,33.1,29.65,ENE,71,3.0,4.0,18,0.00,,,0.00,199,Wunderground v.1.15,2013-08-20 19:45:00,
2013-08-20 13:50:00,80.5,31.7,29.65,East,85,3.0,3.0,17,0.00,,,0.00,130,Wunderground v.1.15,2013-08-20 19:50:00,
2013-08-20 13:55:00,79.8,33.9,29.65,East,100,3.0,4.0,19,0.00,,,0.00,132,Wunderground v.1.15,2013-08-20 19:55:00,
2013-08-20 14:05:00,80.5,34.4,29.66,SE,133,3.0,8.0,19,0.00,,,0.00,869,Wunderground v.1.15,2013-08-20 20:05:00,
2013-08-20 14:15:00,80.1,32.7,29.65,ESE,102,3.0,8.0,18,0.00,,,0.00,111,Wunderground v.1.15,2013-08-20 20:15:00,
2013-08-20 14:20:00,79.0,33.2,29.65,East,89,4.0,4.0,19,0.00,,,0.00,88,Wunderground v.1.15,2013-08-20 20:20:00,
2013-08-20 14:25:00,78.1,33.7,29.65,ENE,66,4.0,4.0,20,0.00,,,0.00,77,Wunderground v.1.15,2013-08-20 20:25:00,
2013-08-20 14:30:00,77.2,34.2,29.68,ENE,68,2.0,2.0,21,0.00,,,0.00,76,Wunderground v.1.15,2013-08-20 20:30:00,
2013-08-20 14:35:00,76.5,39.0,29.68,ENE,69,0.0,2.0,26,0.00,,,0.00,77,Wunderground v.1.15,2013-08-20 20:35:00,
2013-08-20 14:40:00,76.0,36.6,29.68,ENE,68,0.0,0.0,24,0.00,,,0.00,72,Wunderground v.1.15,2013-08-20 20:40:00,
2013-08-20 14:45:00,75.6,34.1,29.68,ENE,68,0.0,2.0,22,0.00,,,0.00,77,Wunderground v.1.15,2013-08-20 20:45:00,
2013-08-20 14:50:00,75.3,36.0,29.68,East,99,1.0,1.0,24,0.00,,,0.00,83,Wunderground v.1.15,2013-08-20 20:50:00,
2013-08-20 15:00:00,75.1,32.5,29.69,NNE,14,1.0,2.0,21,0.00,,,0.00,91,Wunderground v.1.15,2013-08-20 21:00:00,
2013-08-20 15:10:00,74.6,36.4,29.69,NNE,14,0.0,0.0,25,0.00,,,0.00,88,Wunderground v.1.15,2013-08-20 21:10:00,
2013-08-20 15:15:00,74.0,37.9,29.69,NNE,14,0.0,0.0,27,0.00,,,0.00,86,Wunderground v.1.15,2013-08-20 21:15:00,
2013-08-20 15:20:00,74.6,32.1,29.69,North,353,1.0,1.0,21,0.00,,,0.00,69,Wunderground v.1.15,2013-08-20 21:20:00,
2013-08-20 15:25:00,74.6,34.3,29.69,West,277,2.0,2.0,23,0.00,,,0.00,77,Wunderground v.1.15,2013-08-20 21:25:00,
2013-08-20 15:30:00,74.9,32.3,29.68,WSW,251,2.0,7.0,21,0.00,,,0.00,84,Wunderground v.1.15,2013-08-20 21:30:00,
2013-08-20 15:40:00,75.3,31.4,29.68,NE,38,3.0,3.0,20,0.00,,,0.00,114,Wunderground v.1.15,2013-08-20 21:40:00,
2013-08-20 15:45:00,75.4,33.9,29.67,North,359,2.0,3.0,22,0.00,,,0.00,146,Wunderground v.1.15,2013-08-20 21:45:00,
2013-08-20 15:50:00,75.4,35.0,29.67,NNW,329,1.0,6.0,23,0.00,,,0.00,146,Wunderground v.1.15,2013-08-20 21:50:00,
2013-08-20 15:55:00,75.8,35.3,29.67,NNW,342,2.0,6.0,23,0.00,,,0.00,127,Wunderground v.1.15,2013-08-20 21:55:00,
2013-08-20 16:00:00,75.6,32.9,29.65,North,0,2.0,4.0,21,0.00,,,0.00,121,Wunderground v.1.15,2013-08-20 22:00:00,
2013-08-20 16:05:00,75.4,37.1,29.65,NNW,347,3.0,4.0,25,0.00,,,0.00,125,Wunderground v.1.15,2013-08-20 22:05:00,
2013-08-20 16:15:00,75.1,35.8,29.66,North,353,1.0,2.0,24,0.00,,,0.00,99,Wunderground v.1.15,2013-08-20 22:15:00,
2013-08-20 16:20:00,75.1,34.8,29.66,North,353,0.0,0.0,23,0.00,,,0.00,104,Wunderground v.1.15,2013-08-20 22:20:00,
2013-08-20 16:25:00,74.6,38.4,29.66,North,353,0.0,0.0,27,0.00,,,0.00,116,Wunderground v.1.15,2013-08-20 22:25:00,
2013-08-20 16:30:00,74.9,39.6,29.64,North,353,0.0,0.0,28,0.00,,,0.00,120,Wunderground v.1.15,2013-08-20 22:30:00,
2013-08-20 16:35:00,74.7,35.5,29.64,ENE,72,0.0,0.0,24,0.00,,,0.00,121,Wunderground v.1.15,2013-08-20 22:35:00,
2013-08-20 16:40:00,75.1,35.8,29.64,NNE,31,1.0,1.0,24,0.00,,,0.00,107,Wunderground v.1.15,2013-08-20 22:40:00,
2013-08-20 16:45:00,75.3,37.0,29.64,NNE,32,0.0,1.0,25,0.00,,,0.00,88,Wunderground v.1.15,2013-08-20 22:45:00,
2013-08-20 16:50:00,74.9,36.7,29.64,NNE,23,0.0,1.0,25,0.00,,,0.00,76,Wunderground v.1.15,2013-08-20 22:50:00,
2013-08-20 16:55:00,74.4,37.3,29.64,NE,35,1.0,1.0,26,0.00,,,0.00,74,Wunderground v.1.15,2013-08-20 22:55:00,
2013-08-20 17:00:00,73.9,38.7,29.64,NE,35,1.0,2.0,28,0.00,,,0.00,70,Wunderground v.1.15,2013-08-20 23:00:00,
2013-08-20 17:05:00,73.5,36.5,29.64,NE,35,0.0,2.0,26,0.00,,,0.00,53,Wunderground v.1.15,2013-08-20 23:05:00,
2013-08-20 17:15:00,72.7,36.8,29.66,NNE,28,0.0,0.0,27,0.00,,,0.00,58,Wunderground v.1.15,2013-08-20 23:15:00,
2013-08-20 17:20:00,72.3,36.4,29.66,NNE,28,0.0,0.0,27,0.00,,,0.00,58,Wunderground v.1.15,2013-08-20 23:20:00,
2013-08-20 17:25:00,72.1,38.9,29.66,NNE,28,0.0,0.0,30,0.00,,,0.00,65,Wunderground v.1.15,2013-08-20 23:25:00,
2013-08-20 17:30:00,72.0,40.5,29.66,NNE,28,0.0,0.0,32,0.00,,,0.00,62,Wunderground v.1.15,2013-08-20 23:30:00,
2013-08-20 17:35:00,71.6,40.2,29.66,NNE,28,0.0,0.0,32,0.00,,,0.00,58,Wunderground v.1.15,2013-08-20 23:35:00,
2013-08-20 17:40:00,71.5,38.4,29.66,NNE,28,0.0,0.0,30,0.00,,,0.00,53,Wunderground v.1.15,2013-08-20 23:40:00,
2013-08-20 17:45:00,71.1,42.0,29.66,NNE,28,0.0,0.0,35,0.00,,,0.00,42,Wunderground v.1.15,2013-08-20 23:45:00,
2013-08-20 17:50:00,70.8,41.8,29.66,NNE,28,0.0,0.0,35,0.00,,,0.00,37,Wunderground v.1.15,2013-08-20 23:50:00,
2013-08-20 18:00:00,70.3,38.2,29.68,NNE,28,0.0,0.0,31,0.00,,,0.00,19,Wunderground v.1.15,2013-08-21 00:00:00,
2013-08-20 18:05:00,69.9,40.2,29.68,NNE,28,0.0,0.0,34,0.00,,,0.00,16,Wunderground v.1.15,2013-08-21 00:05:00,
2013-08-20 18:10:00,69.4,39.8,29.68,NNE,28,0.0,0.0,34,0.00,,,0.00,14,Wunderground v.1.15,2013-08-21 00:10:00,
2013-08-20 18:20:00,69.8,36.1,29.68,WSW,258,3.0,3.0,29,0.00,,,0.00,12,Wunderground v.1.15,2013-08-21 00:20:00,
2013-08-20 18:25:00,70.3,35.6,29.68,WNW,292,6.0,6.0,28,0.00,,,0.00,19,Wunderground v.1.15,2013-08-21 00:25:00,
2013-08-20 18:30:00,70.3,35.6,29.68,WSW,254,6.0,6.0,28,0.00,,,0.00,25,Wunderground v.1.15,2013-08-21 00:30:00,
2013-08-20 18:35:00,70.1,34.5,29.68,WNW,292,3.0,6.0,27,0.00,,,0.00,23,Wunderground v.1.15,2013-08-21 00:35:00,
2013-08-20 18:40:00,69.9,35.3,29.68,WSW,239,3.0,10.0,28,0.00,,,0.00,23,Wunderground v.1.15,2013-08-21 00:40:00,
2013-08-20 18:50:00,69.8,34.3,29.68,WSW,239,5.0,5.0,27,0.00,,,0.00,21,Wunderground v.1.15,2013-08-21 00:50:00,
2013-08-20 18:55:00,69.6,34.1,29.68,SW,215,4.0,5.0,27,0.00,,,0.00,18,Wunderground v.1.15,2013-08-21 00:55:00,
2013-08-20 19:05:00,69.4,33.9,29.68,West,277,4.0,6.0,27,0.00,,,0.00,14,Wunderground v.1.15,2013-08-21 01:05:00,
2013-08-20 19:10:00,69.3,33.9,29.68,WSW,254,4.0,7.0,27,0.00,,,0.00,14,Wunderground v.1.15,2013-08-21 01:10:00,
2013-08-20 19:15:00,69.1,34.6,29.70,WNW,288,5.0,7.0,28,0.00,,,0.00,12,Wunderground v.1.15,2013-08-21 01:15:00,
2013-08-20 19:20:00,68.9,34.4,29.70,WSW,254,4.0,4.0,28,0.00,,,0.00,5,Wunderground v.1.15,2013-08-21 01:20:00,
2013-08-20 19:25:00,68.8,35.2,29.70,West,265,2.0,4.0,29,0.00,,,0.00,0,Wunderground v.1.15,2013-08-21 01:25:00,
2013-08-20 19:30:00,68.4,34.9,29.67,WNW,301,2.0,7.0,29,0.00,,,0.00,0,Wunderground v.1.15,2013-08-21 01:30:00,
2013-08-20 19:35:00,68.4,34.9,29.67,NW,308,4.0,8.0,29,0.00,,,0.00,0,Wunderground v.1.15,2013-08-21 01:35:00,
2013-08-20 19:45:00,68.3,35.6,29.66,NNW,328,6.0,9.0,30,0.00,,,0.00,0,Wunderground v.1.15,2013-08-21 01:45:00,
2013-08-20 19:50:00,68.1,36.3,29.66,NW,313,6.0,6.0,31,0.00,,,0.00,0,Wunderground v.1.15,2013-08-21 01:50:00,
2013-08-20 19:55:00,68.1,36.3,29.66,WSW,258,6.0,7.0,31,0.00,,,0.00,0,Wunderground v.1.15,2013-08-21 01:55:00,
2013-08-20 20:00:00,68.1,36.3,29.67,WSW,257,6.0,8.0,31,0.00,,,0.00,0,Wunderground v.1.15,2013-08-21 02:00:00,
2013-08-20 20:05:00,67.9,36.1,29.67,NW,319,7.0,10.0,31,0.00,,,0.00,0,Wunderground v.1.15,2013-08-21 02:05:00,
2013-08-20 20:10:00,67.8,36.0,29.67,WSW,239,7.0,7.0,31,0.00,,,0.00,0,Wunderground v.1.15,2013-08-21 02:10:00,
2013-08-20 20:15:00,67.8,36.8,29.67,WSW,257,6.0,7.0,32,0.00,,,0.00,0,Wunderground v.1.15,2013-08-21 02:15:00,
2013-08-20 20:20:00,67.6,36.7,29.67,SW,234,5.0,5.0,32,0.00,,,0.00,0,Wunderground v.1.15,2013-08-21 02:20:00,
2013-08-20 20:25:00,67.4,36.5,29.67,WNW,298,4.0,6.0,32,0.00,,,0.00,0,Wunderground v.1.15,2013-08-21 02:25:00,
2013-08-20 20:30:00,67.3,36.4,29.67,WNW,295,4.0,4.0,32,0.00,,,0.00,0,Wunderground v.1.15,2013-08-21 02:30:00,
2013-08-20 20:35:00,67.3,36.4,29.67,WSW,256,3.0,4.0,32,0.00,,,0.00,0,Wunderground v.1.15,2013-08-21 02:35:00,
2013-08-20 20:45:00,66.9,36.1,29.67,West,271,4.0,4.0,32,0.00,,,0.00,0,Wunderground v.1.15,2013-08-21 02:45:00,
2013-08-20 20:55:00,66.8,36.0,29.67,WSW,241,5.0,6.0,32,0.00,,,0.00,0,Wunderground v.1.15,2013-08-21 02:55:00,
2013-08-20 21:00:00,66.6,35.8,29.68,WSW,250,5.0,5.0,32,0.00,,,0.00,0,Wunderground v.1.15,2013-08-21 03:00:00,
2013-08-20 21:10:00,66.4,35.6,29.68,West,267,3.0,3.0,32,0.00,,,0.00,0,Wunderground v.1.15,2013-08-21 03:10:00,
2013-08-20 21:20:00,66.3,37.1,29.70,South,191,0.0,0.0,34,0.00,,,0.00,0,Wunderground v.1.15,2013-08-21 03:20:00,
2013-08-20 21:25:00,66.3,36.3,29.70,South,186,0.0,0.0,33,0.00,,,0.00,0,Wunderground v.1.15,2013-08-21 03:25:00,
2013-08-20 21:35:00,65.8,38.1,29.66,South,188,0.0,1.0,36,0.00,,,0.00,0,Wunderground v.1.15,2013-08-21 03:35:00,
2013-08-20 21:40:00,65.5,37.1,29.66,SW,222,1.0,4.0,35,0.00,,,0.00,0,Wunderground v.1.15,2013-08-21 03:40:00,
2013-08-20 21:45:00,65.2,36.8,29.66,SW,230,3.0,4.0,35,0.00,,,0.00,0,Wunderground v.1.15,2013-08-21 03:45:00,
2013-08-20 21:50:00,65.0,36.7,29.66,SSW,200,3.0,7.0,35,0.00,,,0.00,0,Wunderground v.1.15,2013-08-21 03:50:00,
2013-08-20 21:55:00,64.8,36.5,29.66,SW,234,3.0,7.0,35,0.00,,,0.00,0,Wunderground v.1.15,2013-08-21 03:55:00,
2013-08-20 22:00:00,64.7,37.1,29.65,WSW,240,3.0,3.0,36,0.00,,,0.00,0,Wunderground v.1.15,2013-08-21 04:00:00,
2013-08-20 22:05:00,64.5,36.9,29.65,WSW,244,2.0,8.0,36,0.00,,,0.00,0,Wunderground v.1.15,2013-08-21 04:05:00,
2013-08-20 22:10:00,64.5,36.9,29.65,SW,232,3.0,3.0,36,0.00,,,0.00,0,Wunderground v.1.15,2013-08-21 04:10:00,
2013-08-20 22:15:00,64.3,36.8,29.67,WSW,243,4.0,7.0,36,0.00,,,0.00,0,Wunderground v.1.15,2013-08-21 04:15:00,
2013-08-20 22:20:00,64.2,37.4,29.67,WSW,257,4.0,9.0,37,0.00,,,0.00,0,Wunderground v.1.15,2013-08-21 04:20:00,
2013-08-20 22:25:00,64.2,37.4,29.67,WSW,251,5.0,9.0,37,0.00,,,0.00,0,Wunderground v.1.15,2013-08-21 04:25:00,
2013-08-20 22:30:00,64.2,37.4,29.62,WSW,254,6.0,9.0,37,0.00,,,0.00,0,Wunderground v.1.15,2013-08-21 04:30:00,
2013-08-20 22:35:00,64.0,37.2,29.62,West,278,6.0,11.0,37,0.00,,,0.00,0,Wunderground v.1.15,2013-08-21 04:35:00,
2013-08-20 22:45:00,64.0,37.2,29.62,West,280,6.0,6.0,37,0.00,,,0.00,0,Wunderground v.1.15,2013-08-21 04:45:00,
2013-08-20 22:50:00,64.0,37.2,29.62,NW,311,6.0,6.0,37,0.00,,,0.00,0,Wunderground v.1.15,2013-08-21 04:50:00,
2013-08-20 22:55:00,64.0,37.2,29.62,WSW,241,5.0,8.0,37,0.00,,,0.00,0,Wunderground v.1.15,2013-08-21 04:55:00,
2013-08-20 23:00:00,64.0,37.2,29.62,SW,234,5.0,7.0,37,0.00,,,0.00,0,Wunderground v.1.15,2013-08-21 05:00:00,
2013-08-20 23:05:00,63.9,37.1,29.62,WSW,251,5.0,7.0,37,0.00,,,0.00,0,Wunderground v.1.15,2013-08-21 05:05:00,
2013-08-20 23:10:00,63.9,37.1,29.62,WSW,254,5.0,5.0,37,0.00,,,0.00,0,Wunderground v.1.15,2013-08-21 05:10:00,
2013-08-20 23:20:00,63.9,37.1,29.61,SW,234,4.0,4.0,37,0.00,,,0.00,0,Wunderground v.1.15,2013-08-21 05:20:00,
2013-08-20 23:25:00,63.9,37.1,29.61,SSW,193,4.0,4.0,37,0.00,,,0.00,0,Wunderground v.1.15,2013-08-21 05:25:00,
2013-08-20 23:30:00,63.7,36.9,29.58,SSW,202,3.0,3.0,37,0.00,,,0.00,0,Wunderground v.1.15,2013-08-21 05:30:00,
2013-08-20 23:35:00,63.7,36.9,29.58,WSW,244,2.0,3.0,37,0.00,,,0.00,0,Wunderground v.1.15,2013-08-21 05:35:00,
2013-08-20 23:45:00,63.7,36.9,29.57,West,264,2.0,2.0,37,0.00,,,0.00,0,Wunderground v.1.15,2013-08-21 05:45:00,
2013-08-20 23:50:00,63.7,36.9,29.57,WNW,282,1.0,1.0,37,0.00,,,0.00,0,Wunderground v.1.15,2013-08-21 05:50:00,
2013-08-20 23:55:00,63.7,36.9,29.57,WSW,250,1.0,2.0,37,0.00,,,0.00,0,Wunderground v.1.15,2013-08-21 05:55:00,